TimeEDT,TemperatureF,Dew PointF,Humidity,Sea Level PressureIn,VisibilityMPH,Wind Direction,Wind SpeedMPH,Gust SpeedMPH,PrecipitationIn,Events,Conditions,WindDirDegrees,DateUTC
12:15 AM,63.5,57.4,80,30.11,10.0,NW,3.5,-,N/A,Rain,Light Rain,310,2013-07-30 04:15:00
12:35 AM,63.0,57.4,82,30.10,10.0,Calm,Calm,-,N/A,,Overcast,0,2013-07-30 04:35:00
12:55 AM,64.2,56.3,75,30.11,10.0,Calm,Calm,-,N/A,,Overcast,0,2013-07-30 04:55:00
1:15 AM,62.6,56.8,81,30.11,10.0,WNW,5.8,-,N/A,Rain,Light Rain,290,2013-07-30 05:15:00
1:35 AM,62.6,56.7,81,30.11,10.0,Calm,Calm,-,N/A,,Overcast,0,2013-07-30 05:35:00
1:55 AM,63.5,55.6,75,30.11,10.0,Calm,Calm,-,N/A,,Overcast,0,2013-07-30 05:55:00
2:15 AM,62.6,54.5,75,30.11,10.0,Calm,Calm,-,N/A,,Overcast,0,2013-07-30 06:15:00
2:35 AM,61.9,56.3,82,30.11,10.0,Calm,Calm,-,N/A,,Overcast,0,2013-07-30 06:35:00
2:55 AM,61.7,55.6,80,30.11,10.0,Calm,Calm,-,N/A,,Overcast,0,2013-07-30 06:55:00
3:15 AM,60.8,55.8,83,30.11,10.0,Calm,Calm,-,N/A,,Overcast,0,2013-07-30 07:15:00
3:35 AM,61.7,55.4,80,30.11,10.0,Calm,Calm,-,N/A,,Overcast,0,2013-07-30 07:35:00
3:55 AM,61.3,54.5,78,30.11,10.0,Calm,Calm,-,N/A,,Overcast,0,2013-07-30 07:55:00
4:15 AM,60.1,54.3,81,30.11,10.0,Calm,Calm,-,N/A,,Scattered Clouds,0,2013-07-30 08:15:00
4:35 AM,58.6,53.8,84,30.11,10.0,Calm,Calm,-,N/A,,Mostly Cloudy,0,2013-07-30 08:35:00
4:55 AM,58.1,53.1,83,30.11,10.0,Calm,Calm,-,N/A,,Mostly Cloudy,0,2013-07-30 08:55:00
5:15 AM,58.1,52.7,82,30.11,10.0,Calm,Calm,-,N/A,,Overcast,0,2013-07-30 09:15:00
5:35 AM,58.3,52.7,82,30.11,10.0,Calm,Calm,-,N/A,,Mostly Cloudy,0,2013-07-30 09:35:00
5:55 AM,56.7,52.5,86,30.12,10.0,Calm,Calm,-,N/A,,Mostly Cloudy,0,2013-07-30 09:55:00
6:15 AM,56.8,52.7,86,30.12,10.0,Calm,Calm,-,N/A,,Scattered Clouds,0,2013-07-30 10:15:00
6:35 AM,59.0,53.4,82,30.13,10.0,Calm,Calm,-,N/A,,Mostly Cloudy,0,2013-07-30 10:35:00
6:55 AM,61.7,53.8,75,30.13,10.0,Calm,Calm,-,N/A,,Mostly Cloudy,0,2013-07-30 10:55:00
7:15 AM,61.7,53.8,75,30.13,10.0,Calm,Calm,-,N/A,,Mostly Cloudy,0,2013-07-30 11:15:00
7:35 AM,63.5,52.5,67,30.13,10.0,Calm,Calm,-,N/A,,Scattered Clouds,0,2013-07-30 11:35:00
7:55 AM,63.5,52.9,68,30.13,10.0,NW,5.8,-,N/A,,Clear,310,2013-07-30 11:55:00
8:15 AM,63.9,53.2,68,30.13,10.0,NW,5.8,-,N/A,,Scattered Clouds,310,2013-07-30 12:15:00
8:35 AM,64.9,53.4,66,30.14,10.0,WNW,9.2,-,N/A,,Scattered Clouds,290,2013-07-30 12:35:00
8:55 AM,64.9,52.9,65,30.14,10.0,West,9.2,-,N/A,,Scattered Clouds,280,2013-07-30 12:55:00
9:15 AM,66.6,52.5,61,30.14,10.0,West,9.2,-,N/A,,Clear,280,2013-07-30 13:15:00
9:35 AM,66.9,52.3,59,30.14,5.0,West,6.9,-,N/A,,Haze,260,2013-07-30 13:35:00
9:55 AM,68.0,52.2,57,30.14,10.0,WNW,8.1,-,N/A,,Scattered Clouds,300,2013-07-30 13:55:00
10:15 AM,68.2,52.2,56,30.14,10.0,West,5.8,-,N/A,,Scattered Clouds,260,2013-07-30 14:15:00
10:35 AM,67.5,49.3,52,30.14,10.0,West,5.8,-,N/A,,Scattered Clouds,270,2013-07-30 14:35:00
10:55 AM,69.3,50.2,51,30.14,10.0,West,11.5,-,N/A,,Scattered Clouds,270,2013-07-30 14:55:00
11:15 AM,70.0,50.7,50,30.14,10.0,West,9.2,-,N/A,,Mostly Cloudy,280,2013-07-30 15:15:00
11:35 AM,71.1,49.8,47,30.14,10.0,West,11.5,-,N/A,,Scattered Clouds,280,2013-07-30 15:35:00
11:55 AM,70.5,49.8,48,30.13,10.0,WNW,6.9,-,N/A,,Scattered Clouds,300,2013-07-30 15:55:00
12:15 PM,71.2,49.8,47,30.13,10.0,WNW,11.5,16.1,N/A,,Scattered Clouds,290,2013-07-30 16:15:00
12:55 PM,68.9,49.5,50,30.13,10.0,West,8.1,-,N/A,,Mostly Cloudy,270,2013-07-30 16:55:00
1:15 PM,69.6,49.5,49,30.13,10.0,West,10.4,16.1,N/A,,Mostly Cloudy,270,2013-07-30 17:15:00
1:35 PM,69.8,48.0,46,30.13,10.0,West,11.5,16.1,N/A,,Mostly Cloudy,270,2013-07-30 17:35:00
1:55 PM,69.6,49.3,48,30.13,10.0,West,11.5,-,N/A,,Overcast,270,2013-07-30 17:55:00
2:15 PM,69.1,49.5,50,30.13,10.0,West,9.2,18.4,N/A,,Overcast,280,2013-07-30 18:15:00
2:35 PM,69.6,50.4,50,30.12,10.0,West,9.2,-,N/A,,Overcast,270,2013-07-30 18:35:00
2:55 PM,72.3,50.5,46,30.11,10.0,West,9.2,-,N/A,,Scattered Clouds,260,2013-07-30 18:55:00
3:15 PM,72.7,49.8,44,30.11,10.0,West,9.2,-,N/A,,Scattered Clouds,280,2013-07-30 19:15:00
3:35 PM,73.8,50.5,44,30.11,10.0,West,10.4,-,N/A,,Mostly Cloudy,260,2013-07-30 19:35:00
3:55 PM,70.3,51.4,51,30.11,10.0,NW,8.1,-,N/A,,Overcast,310,2013-07-30 19:55:00
4:15 PM,71.6,53.6,53,30.10,10.0,NW,4.6,-,N/A,,Overcast,310,2013-07-30 20:15:00
4:35 PM,69.4,50.4,51,30.10,10.0,West,8.1,-,N/A,,Mostly Cloudy,280,2013-07-30 20:35:00
4:55 PM,69.3,51.8,54,30.10,10.0,West,8.1,-,N/A,,Overcast,280,2013-07-30 20:55:00
5:15 PM,69.6,50.7,51,30.09,10.0,WNW,10.4,-,N/A,,Scattered Clouds,300,2013-07-30 21:15:00
5:35 PM,69.6,50.5,51,30.09,10.0,WNW,10.4,17.3,N/A,,Clear,290,2013-07-30 21:35:00
5:55 PM,71.1,52.2,51,30.09,10.0,WNW,8.1,-,N/A,,Scattered Clouds,290,2013-07-30 21:55:00
6:15 PM,71.1,52.2,51,30.09,10.0,WNW,5.8,-,N/A,,Scattered Clouds,290,2013-07-30 22:15:00
6:35 PM,70.3,51.8,52,30.10,10.0,West,8.1,-,N/A,,Scattered Clouds,270,2013-07-30 22:35:00
6:55 PM,70.0,50.9,51,30.11,10.0,WNW,6.9,-,N/A,,Scattered Clouds,290,2013-07-30 22:55:00
7:15 PM,67.5,52.0,58,30.11,10.0,West,5.8,-,N/A,,Clear,280,2013-07-30 23:15:00
7:35 PM,67.6,51.8,57,30.11,10.0,WNW,5.8,-,N/A,,Scattered Clouds,290,2013-07-30 23:35:00
7:55 PM,67.1,52.0,58,30.11,10.0,Calm,Calm,-,N/A,,Scattered Clouds,0,2013-07-30 23:55:00
8:15 PM,65.3,52.7,64,30.12,10.0,Calm,Calm,-,N/A,,Scattered Clouds,0,2013-07-31 00:15:00
8:35 PM,65.1,52.0,62,30.12,10.0,Calm,Calm,-,N/A,,Clear,0,2013-07-31 00:35:00
8:55 PM,64.8,51.8,63,30.11,10.0,Calm,Calm,-,N/A,,Clear,0,2013-07-31 00:55:00
9:15 PM,63.9,52.0,65,30.12,10.0,Calm,Calm,-,N/A,,Scattered Clouds,0,2013-07-31 01:15:00
9:35 PM,63.5,53.4,70,30.13,10.0,Calm,Calm,-,N/A,,Scattered Clouds,0,2013-07-31 01:35:00
9:55 PM,62.4,52.9,71,30.13,10.0,Calm,Calm,-,N/A,,Clear,0,2013-07-31 01:55:00
10:15 PM,61.7,52.9,73,30.14,10.0,Calm,Calm,-,N/A,,Scattered Clouds,0,2013-07-31 02:15:00
10:35 PM,61.9,52.5,71,30.13,10.0,NW,3.5,-,N/A,,Scattered Clouds,320,2013-07-31 02:35:00
10:55 PM,62.6,52.3,69,30.13,10.0,Calm,Calm,-,N/A,,Clear,0,2013-07-31 02:55:00
11:15 PM,58.3,52.5,81,30.14,10.0,Calm,Calm,-,N/A,,Clear,0,2013-07-31 03:15:00
11:35 PM,57.7,52.0,81,30.14,10.0,Calm,Calm,-,N/A,,Clear,0,2013-07-31 03:35:00
11:55 PM,56.7,52.2,85,30.14,10.0,Calm,Calm,-,N/A,,Clear,0,2013-07-31 03:55:00